Location: Alafon
(8.4500°N, 4.2333°E)
Time: 22:58:55
(UTC+00:00)

deb Explorer IX - Pass Details

Date: 24 July 2021
Orbit: 545 x 1091 km, 38.8° (Epoch: 19 September)

Event Time Altitude Azimuth Distance (km) Brightness Sun altitude
Rises 00:36:03 0° 293° (WNW) 3,804 - -59.5°
Reaches altitude 10° 00:39:13 10° 283° (WNW) 2,790 - -59.2°
Maximum altitude 00:44:58 30° 225° (SW) 1,620 - -58.6°
Drops below altitude 10° 00:50:07 10° 165° (SSE) 2,482 - -58.0°
Sets 00:52:47 0° 154° (SSE) 3,322 - -57.7°
